Meteo Giornale » Osservazioni meteo Germania » Monaco-Riem

ore: 19:50 - Osservazioni Meteo Monaco-Riem
Lat. 48° 8' N Lon. 11° 42' E Alt. 529 metri s.l.m.

sereno Europe/Berlin

15 °C

Sereno

Temp. 24 Ore

10 °C

18 °C

Nord

1.8 Km/h

Dew point 10 °C

Umidità 72 %

Visibilità  10 Km

Il sole sorge alle ore 06:51

Il sole tramonta alle ore 19:23

Data e Ora Cielo e Fenomeni T °C DP °C Um. % Pres. hPa Vis. km Vento km/h
Oggi h: 19:50 sereno Sereno 15 10 72 1016 10 N 1.8
Oggi h: 19:20 poco_nuvoloso Poco Nuvoloso 16 11 72 1016 10 N 3.7
Oggi h: 18:20 poco_nuvoloso Poco Nuvoloso 17 9 59 1016 10 N 5.5
Oggi h: 17:50 poco_nuvoloso Poco Nuvoloso 18 9 55 1016 10 N 7.4
Oggi h: 17:20 poco_nuvoloso Poco Nuvoloso 18 10 59 1016 10 N 3.7
Oggi h: 16:50 poco_nuvoloso Poco Nuvoloso 18 10 59 1016 10 N/NO 7.4
Oggi h: 16:20 poco_nuvoloso Poco Nuvoloso 17 8 55 1016 10 NO 9.3
Oggi h: 15:50 poco_nuvoloso Poco Nuvoloso 17 9 59 1016 10 N 5.5
Oggi h: 15:20 poco_nuvoloso Poco Nuvoloso 17 9 59 1016 10 O/NO 9.3
Oggi h: 14:50 poco_nuvoloso Poco Nuvoloso 17 8 55 1017 10 O/NO 7.4
Oggi h: 14:20 molto_nuvoloso Molto Nuvoloso 17 8 55 1017 10 NO 7.4
Oggi h: 13:50 molto_nuvoloso Molto Nuvoloso 17 10 63 1017 10 O 9.3
Oggi h: 13:20 molto_nuvoloso Molto Nuvoloso 17 10 63 1017 10 O 11.1
Oggi h: 12:50 molto_nuvoloso Molto Nuvoloso 16 12 77 1017 10 O/NO 9.3
Oggi h: 12:20 molto_nuvoloso Molto Nuvoloso 16 12 77 1017 10 O/NO 9.3
Oggi h: 11:50 molto_nuvoloso Molto Nuvoloso 15 12 82 1017 10 O/NO 9.3
Oggi h: 11:20 molto_nuvoloso Molto Nuvoloso 15 12 82 1018 10 O 7.4
Oggi h: 10:50 molto_nuvoloso Molto Nuvoloso 15 12 82 1018 10 O/NO 7.4
Oggi h: 10:20 molto_nuvoloso Molto Nuvoloso 14 12 87 1018 10 O 9.3
Oggi h: 09:50 coperto Coperto 14 11 82 1018 10 O 7.4
Oggi h: 09:20 coperto Coperto 13 11 87 1018 10 O/SO 7.4
Oggi h: 08:50 coperto Coperto 13 11 87 1018 10 O 9.3
Oggi h: 08:20 molto_nuvoloso Molto Nuvoloso 12 11 93 1017 10 O/SO 9.3
Oggi h: 07:50 molto_nuvoloso Molto Nuvoloso 12 11 93 1017 10 O 7.4
Oggi h: 07:20 molto_nuvoloso Molto Nuvoloso 12 11 93 1017 10 O 9.3
Oggi h: 06:50 molto_nuvoloso Molto Nuvoloso 12 11 93 1017 10 O 7.4
Oggi h: 06:20 molto_nuvoloso Molto Nuvoloso 12 11 93 1017 10 N 5.5
Oggi h: 05:50 molto_nuvoloso Molto Nuvoloso 12 11 93 1017 10 O 9.3
Oggi h: 05:20 molto_nuvoloso Molto Nuvoloso 12 11 93 1017 10 O/SO 9.3
Oggi h: 04:50 molto_nuvoloso Molto Nuvoloso 12 11 93 1017 10 O 7.4
Oggi h: 04:20 nuvoloso Nuvoloso 11 11 100 1017 10 O 9.3
Oggi h: 03:50 nuvoloso Nuvoloso 10 10 100 1017 10 O 9.3
Oggi h: 03:20 nuvoloso Nuvoloso 10 10 100 1017 10 O/SO 11.1
Oggi h: 02:50 poco_nuvoloso Poco Nuvoloso 10 10 100 1018 10 O 9.3
Oggi h: 02:20 poco_nuvoloso Poco Nuvoloso 11 10 93 1017 10 O 9.3
Oggi h: 01:50 nuvoloso Nuvoloso 13 11 87 1018 10 O/NO 7.4
Oggi h: 01:20 molto_nuvoloso Molto Nuvoloso 13 11 87 1018 10 O/NO 7.4
Oggi h: 00:50 molto_nuvoloso Molto Nuvoloso 14 11 82 1018 10 O/NO 7.4
Oggi h: 00:20 molto_nuvoloso Molto Nuvoloso 14 11 82 1017 10 O/NO 7.4
Ieri h: 23:50 molto_nuvoloso Molto Nuvoloso 14 12 87 1018 10 O/NO 9.3
Ieri h: 23:20 molto_nuvoloso Molto Nuvoloso 15 13 87 1017 10 O/NO 11.1
Ieri h: 22:50 molto_nuvoloso Molto Nuvoloso 15 13 87 1017 10 N 5.5
Ieri h: 22:20 coperto Coperto 15 13 87 1017 10 NO 9.3
Ieri h: 21:50 coperto Coperto 15 13 87 1017 10 NO 13
Ieri h: 21:20 coperto_pioggia Pioviggine Leggera 15 13 87 1017 6 NO 18.5
Ieri h: 20:50 molto_nuvoloso Molto Nuvoloso 16 14 87 1017 10 NO 13